| time (UTC) | temp F | wind direction | speed MPH | gust MPH | rain 1hr in | rain 24hr in | rain mn in | humidity % | barometer mb |
| 20260507070111 | 58 | 258 | 1.0 | 10.0 | 0.00 | 0.00 | 0.00 | 81 | 1011.4 |
| 20260507065603 | 58 | 247 | 2.0 | 6.0 | 0.00 | 0.00 | 0.00 | 82 | 1011.3 |
| 20260507065105 | 58 | 284 | 1.0 | 6.0 | 0.00 | 0.00 | 0.00 | 83 | 1011.3 |
| 20260507064601 | 58 | 237 | 1.0 | 6.0 | 0.00 | 0.00 | 0.00 | 83 | 1011.3 |
| 20260507064055 | 58 | 277 | 0.0 | 6.0 | 0.00 | 0.00 | 0.00 | 84 | 1011.4 |
| 20260507063631 | 58 | 269 | 1.0 | 6.0 | 0.00 | 0.00 | 0.00 | 84 | 1011.4 |
| 20260507063125 | 58 | 283 | 1.0 | 7.0 | 0.00 | 0.00 | 0.00 | 85 | 1011.4 |
| 20260507062638 | 57 | 208 | 0.0 | 7.0 | 0.00 | 0.00 | 0.00 | 85 | 1011.4 |
| 20260507062117 | 57 | 256 | 1.0 | 3.0 | 0.00 | 0.00 | 0.00 | 86 | 1011.4 |
| 20260507061559 | 57 | 255 | 0.0 | 2.0 | 0.00 | 0.00 | 0.00 | 86 | 1011.4 |
| 20260507061102 | 57 | 255 | 0.0 | 4.0 | 0.00 | 0.00 | 0.00 | 86 | 1011.4 |
| 20260507060557 | 57 | 255 | 0.0 | 4.0 | 0.00 | 0.00 | 0.00 | 87 | 1011.4 |
| 20260507060052 | 57 | 235 | 0.0 | 4.0 | 0.00 | 0.00 | 0.00 | 87 | 1011.4 |
| 20260507055607 | 57 | 248 | 0.0 | 1.0 | 0.00 | 0.00 | 0.00 | 87 | 1011.4 |
| 20260507055103 | 57 | 248 | 0.0 | 1.0 | 0.00 | 0.00 | 0.00 | 86 | 1011.4 |
| 20260507054557 | 57 | 272 | 0.0 | 4.0 | 0.00 | 0.00 | 0.00 | 86 | 1011.4 |
| 20260507054056 | 57 | 272 | 1.0 | 4.0 | 0.00 | 0.00 | 0.00 | 86 | 1011.6 |
| 20260507053554 | 57 | 267 | 0.0 | 2.0 | 0.00 | 0.00 | 0.00 | 85 | 1011.6 |
| 20260507053108 | 57 | 267 | 0.0 | 2.0 | 0.00 | 0.00 | 0.00 | 85 | 1011.6 |
| 20260507052556 | 57 | 267 | 0.0 | 2.0 | 0.00 | 0.00 | 0.00 | 84 | 1011.6 |
| 20260507052102 | 57 | 267 | 0.0 | 2.0 | 0.00 | 0.00 | 0.00 | 84 | 1011.6 |
| 20260507051605 | 57 | 267 | 0.0 | 2.0 | 0.00 | 0.00 | 0.00 | 84 | 1011.6 |
| 20260507051101 | 57 | 267 | 0.0 | 0.0 | 0.00 | 0.00 | 0.00 | 83 | 1011.5 |
| 20260507050555 | 57 | 267 | 0.0 | 1.0 | 0.00 | 0.00 | 0.00 | 81 | 1011.5 |
| 20260507050051 | 57 | 267 | 0.0 | 1.0 | 0.00 | 0.00 | 0.00 | 81 | 1011.5 |
| 20260507045603 | 57 | 267 | 0.0 | 0.0 | 0.00 | 0.00 | 0.00 | 80 | 1011.4 |
| 20260507045058 | 58 | 267 | 0.0 | 0.0 | 0.00 | 0.00 | 0.00 | 80 | 1011.4 |
| 20260507044554 | 58 | 267 | 0.0 | 0.0 | 0.00 | 0.00 | 0.00 | 80 | 1011.4 |
| 20260507044049 | 58 | 267 | 0.0 | 0.0 | 0.00 | 0.00 | 0.00 | 79 | 1011.4 |
| 20260507043633 | 58 | 267 | 0.0 | 0.0 | 0.00 | 0.00 | 0.00 | 79 | 1011.4 |
| 20260507043116 | 58 | 267 | 0.0 | 0.0 | 0.00 | 0.00 | 0.00 | 78 | 1011.4 |
| 20260507042609 | 58 | 267 | 0.0 | 0.0 | 0.00 | 0.00 | 0.00 | 78 | 1011.4 |
| 20260507042105 | 58 | 267 | 0.0 | 0.0 | 0.00 | 0.00 | 0.00 | 77 | 1011.4 |
| 20260507041620 | 59 | 267 | 0.0 | 0.0 | 0.00 | 0.00 | 0.00 | 77 | 1011.4 |
| 20260507041054 | 59 | 267 | 0.0 | 0.0 | 0.00 | 0.00 | 0.00 | 77 | 1011.2 |
| 20260507040610 | 59 | 267 | 0.0 | 0.0 | 0.00 | 0.00 | 0.00 | 77 | 1011.2 |
| 20260507040048 | 59 | 267 | 0.0 | 1.0 | 0.00 | 0.00 | 0.00 | 76 | 1011.2 |
| 20260507035607 | 59 | 267 | 0.0 | 1.0 | 0.00 | 0.00 | 0.00 | 76 | 1011.0 |
| 20260507035118 | 59 | 267 | 0.0 | 0.0 | 0.00 | 0.00 | 0.00 | 76 | 1011.0 |
| 20260507034629 | 60 | 267 | 0.0 | 2.0 | 0.00 | 0.00 | 0.00 | 76 | 1011.0 |
| 20260507034144 | 60 | 267 | 0.0 | 2.0 | 0.00 | 0.00 | 0.00 | 76 | 1010.8 |
| 20260507033607 | 60 | 267 | 0.0 | 2.0 | 0.00 | 0.00 | 0.00 | 76 | 1010.8 |
| 20260507033119 | 60 | 254 | 0.0 | 4.0 | 0.00 | 0.00 | 0.00 | 76 | 1010.8 |
| 20260507032559 | 60 | 252 | 1.0 | 4.0 | 0.00 | 0.00 | 0.00 | 76 | 1010.6 |
| 20260507032055 | 60 | 278 | 0.0 | 7.0 | 0.00 | 0.00 | 0.00 | 76 | 1010.6 |
| 20260507031554 | 60 | 273 | 0.0 | 9.0 | 0.00 | 0.00 | 0.00 | 77 | 1010.6 |
| 20260507031109 | 60 | 288 | 1.0 | 9.0 | 0.00 | 0.00 | 0.00 | 76 | 1010.4 |
| 20260507030605 | 60 | 274 | 2.0 | 7.0 | 0.00 | 0.00 | 0.00 | 76 | 1010.4 |
| 20260507030100 | 60 | 229 | 0.0 | 10.0 | 0.00 | 0.00 | 0.00 | 76 | 1010.4 |
| 20260507025552 | 60 | 246 | 3.0 | 10.0 | 0.00 | 0.00 | 0.00 | 75 | 1010.3 |
| 20260507025051 | 61 | 274 | 0.0 | 7.0 | 0.00 | 0.00 | 0.00 | 74 | 1010.3 |
| 20260507024606 | 61 | 292 | 0.0 | 7.0 | 0.00 | 0.00 | 0.00 | 72 | 1010.3 |
| 20260507024059 | 61 | 239 | 0.0 | 7.0 | 0.00 | 0.00 | 0.00 | 70 | 1010.3 |
| 20260507023703 | 61 | 229 | 2.0 | 8.0 | 0.00 | 0.00 | 0.00 | 69 | 1010.3 |
| 20260507023132 | 61 | 196 | 3.0 | 10.0 | 0.00 | 0.00 | 0.00 | 67 | 1010.3 |
| 20260507022625 | 61 | 319 | 2.0 | 10.0 | 0.00 | 0.00 | 0.00 | 66 | 1010.3 |
| 20260507022059 | 61 | 193 | 4.0 | 11.0 | 0.00 | 0.00 | 0.00 | 67 | 1010.3 |
| 20260507021553 | 61 | 259 | 1.0 | 11.0 | 0.00 | 0.00 | 0.00 | 68 | 1010.3 |
| 20260507021052 | 61 | 271 | 3.0 | 15.0 | 0.00 | 0.00 | 0.00 | 70 | 1010.3 |
| 20260507020608 | 62 | 279 | 2.0 | 15.0 | 0.00 | 0.00 | 0.00 | 70 | 1010.3 |
| 20260507020137 | 62 | 273 | 2.0 | 12.0 | 0.00 | 0.00 | 0.00 | 70 | 1010.3 |
| 20260507015608 | 63 | 204 | 3.0 | 12.0 | 0.00 | 0.00 | 0.00 | 67 | 1010.2 |
| 20260507015110 | 63 | 270 | 0.0 | 14.0 | 0.00 | 0.00 | 0.00 | 65 | 1010.2 |
| 20260507014604 | 63 | 272 | 3.0 | 14.0 | 0.00 | 0.00 | 0.00 | 65 | 1010.2 |
| 20260507014103 | 63 | 265 | 2.0 | 11.0 | 0.00 | 0.00 | 0.00 | 67 | 1010.1 |
| 20260507013559 | 64 | 274 | 2.0 | 8.0 | 0.00 | 0.00 | 0.00 | 66 | 1010.1 |
| 20260507013058 | 65 | 268 | 1.0 | 7.0 | 0.00 | 0.00 | 0.00 | 65 | 1010.1 |
| 20260507012554 | 65 | 323 | 3.0 | 7.0 | 0.00 | 0.00 | 0.00 | 63 | 1009.9 |
| 20260507012211 | 65 | 276 | 2.0 | 11.0 | 0.00 | 0.00 | 0.00 | 61 | 1009.9 |
| 20260507011624 | 65 | 250 | 2.0 | 11.0 | 0.00 | 0.00 | 0.00 | 59 | 1009.9 |
| 20260507011059 | 66 | 189 | 1.0 | 5.0 | 0.00 | 0.00 | 0.00 | 59 | 1009.8 |
| 20260507010558 | 66 | 284 | 0.0 | 5.0 | 0.00 | 0.00 | 0.00 | 62 | 1009.8 |
| 20260507010116 | 66 | 270 | 0.0 | 5.0 | 0.00 | 0.00 | 0.00 | 64 | 1009.8 |
| 20260507005608 | 65 | 263 | 1.0 | 6.0 | 0.00 | 0.00 | 0.00 | 64 | 1009.8 |
| 20260507005122 | 65 | 209 | 1.0 | 12.0 | 0.00 | 0.00 | 0.00 | 64 | 1009.8 |
| 20260507004558 | 65 | 276 | 2.0 | 12.0 | 0.00 | 0.00 | 0.00 | 63 | 1009.8 |
| 20260507004057 | 66 | 276 | 2.0 | 11.0 | 0.00 | 0.00 | 0.00 | 64 | 1010.1 |
| 20260507003552 | 66 | 281 | 2.0 | 10.0 | 0.00 | 0.00 | 0.00 | 67 | 1010.1 |
| 20260507003108 | 66 | 263 | 0.0 | 10.0 | 0.00 | 0.00 | 0.00 | 68 | 1010.1 |
| 20260507002603 | 66 | 269 | 2.0 | 13.0 | 0.00 | 0.00 | 0.00 | 66 | 1009.9 |
| 20260507002112 | 66 | 281 | 4.0 | 13.0 | 0.00 | 0.00 | 0.00 | 64 | 1009.9 |
| 20260507001611 | 66 | 194 | 1.0 | 9.0 | 0.00 | 0.00 | 0.00 | 66 | 1009.9 |
| 20260507001055 | 66 | 267 | 2.0 | 11.0 | 0.00 | 0.00 | 0.00 | 65 | 1009.9 |
| 20260507000609 | 66 | 183 | 4.0 | 11.0 | 0.00 | 0.00 | 0.00 | 65 | 1009.9 |
| 20260507000105 | 66 | 313 | 2.0 | 9.0 | 0.00 | 0.00 | 0.00 | 65 | 1009.9 |
| 20260506235559 | 66 | 232 | 2.0 | 11.0 | 0.00 | 0.00 | 0.00 | 64 | 1010.1 |
| 20260506235143 | 67 | 267 | 2.0 | 11.0 | 0.00 | 0.00 | 0.00 | 64 | 1010.1 |
| 20260506234649 | 67 | 214 | 2.0 | 11.0 | 0.00 | 0.00 | 0.00 | 64 | 1010.1 |
| 20260506234105 | 67 | 247 | 2.0 | 11.0 | 0.00 | 0.00 | 0.00 | 63 | 1009.9 |
| 20260506233601 | 68 | 188 | 1.0 | 8.0 | 0.00 | 0.00 | 0.00 | 62 | 1009.9 |
| 20260506233056 | 69 | 211 | 2.0 | 7.0 | 0.00 | 0.00 | 0.00 | 59 | 1009.9 |
| 20260506232627 | 69 | 288 | 2.0 | 9.0 | 0.00 | 0.00 | 0.00 | 58 | 1010.2 |
| 20260506232121 | 69 | 296 | 2.0 | 9.0 | 0.00 | 0.00 | 0.00 | 59 | 1010.2 |
| 20260506231607 | 69 | 282 | 0.0 | 10.0 | 0.00 | 0.00 | 0.00 | 61 | 1010.2 |
| 20260506231102 | 69 | 262 | 4.0 | 10.0 | 0.00 | 0.00 | 0.00 | 58 | 1010.3 |
| 20260506230601 | 69 | 274 | 0.0 | 6.0 | 0.00 | 0.00 | 0.00 | 59 | 1010.3 |
| 20260506230056 | 69 | 200 | 1.0 | 6.0 | 0.00 | 0.00 | 0.00 | 58 | 1010.3 |
| 20260506225552 | 69 | 194 | 1.0 | 4.0 | 0.00 | 0.00 | 0.00 | 58 | 1010.3 |
| 20260506225108 | 69 | 263 | 0.0 | 4.0 | 0.00 | 0.00 | 0.00 | 59 | 1010.3 |
| 20260506224602 | 68 | 185 | 1.0 | 4.0 | 0.00 | 0.00 | 0.00 | 56 | 1010.3 |
| 20260506224058 | 68 | 228 | 0.0 | 6.0 | 0.00 | 0.00 | 0.00 | 59 | 1010.7 |
| 20260506223553 | 68 | 266 | 1.0 | 7.0 | 0.00 | 0.00 | 0.00 | 58 | 1010.7 |
| 20260506223111 | 69 | 246 | 1.0 | 7.0 | 0.00 | 0.00 | 0.00 | 58 | 1010.7 |
| 20260506222606 | 69 | 228 | 1.0 | 4.0 | 0.00 | 0.00 | 0.00 | 56 | 1010.8 |
| 20260506222225 | 69 | 225 | 0.0 | 5.0 | 0.00 | 0.00 | 0.00 | 56 | 1010.8 |
| 20260506221615 | 70 | 234 | 1.0 | 5.0 | 0.00 | 0.00 | 0.00 | 55 | 1010.8 |
| 20260506221053 | 70 | 284 | 2.0 | 5.0 | 0.00 | 0.00 | 0.00 | 54 | 1010.9 |
| 20260506220606 | 69 | 263 | 0.0 | 3.0 | 0.00 | 0.00 | 0.00 | 52 | 1010.9 |
| 20260506220101 | 69 | 271 | 0.0 | 3.0 | 0.00 | 0.00 | 0.00 | 52 | 1010.9 |
| 20260506215558 | 69 | 255 | 0.0 | 7.0 | 0.00 | 0.00 | 0.00 | 53 | 1011.0 |
| 20260506215054 | 69 | 281 | 1.0 | 7.0 | 0.00 | 0.00 | 0.00 | 51 | 1011.0 |
| 20260506214610 | 70 | 259 | 1.0 | 3.0 | 0.00 | 0.00 | 0.00 | 50 | 1011.0 |
| 20260506214105 | 70 | 265 | 1.0 | 4.0 | 0.00 | 0.00 | 0.00 | 48 | 1011.1 |
| 20260506213600 | 71 | 250 | 0.0 | 4.0 | 0.00 | 0.00 | 0.00 | 51 | 1011.1 |
| 20260506213116 | 71 | 254 | 1.0 | 6.0 | 0.00 | 0.00 | 0.00 | 51 | 1011.1 |
| 20260506212631 | 71 | 283 | 1.0 | 6.0 | 0.00 | 0.00 | 0.00 | 54 | 1011.3 |
| 20260506212055 | 71 | 239 | 0.0 | 4.0 | 0.00 | 0.00 | 0.00 | 54 | 1011.3 |
| 20260506211554 | 71 | 182 | 0.0 | 4.0 | 0.00 | 0.00 | 0.00 | 55 | 1011.3 |
| 20260506211052 | 71 | 189 | 0.0 | 4.0 | 0.00 | 0.00 | 0.00 | 54 | 1011.4 |
| 20260506210550 | 71 | 167 | 0.0 | 4.0 | 0.00 | 0.00 | 0.00 | 54 | 1011.4 |
| 20260506210108 | 70 | 287 | 0.0 | 4.0 | 0.00 | 0.00 | 0.00 | 53 | 1011.4 |
| 20260506205557 | 70 | 217 | 0.0 | 4.0 | 0.00 | 0.00 | 0.00 | 53 | 1011.4 |
| 20260506205113 | 69 | 175 | 0.0 | 4.0 | 0.00 | 0.00 | 0.00 | 50 | 1011.4 |
| 20260506204606 | 69 | 180 | 0.0 | 4.0 | 0.00 | 0.00 | 0.00 | 50 | 1011.4 |
| 20260506204102 | 68 | 183 | 0.0 | 5.0 | 0.00 | 0.00 | 0.00 | 52 | 1011.5 |
| 20260506203557 | 68 | 184 | 0.0 | 5.0 | 0.00 | 0.00 | 0.00 | 50 | 1011.5 |
| 20260506203112 | 68 | 169 | 0.0 | 5.0 | 0.00 | 0.00 | 0.00 | 52 | 1011.5 |
| 20260506202620 | 69 | 164 | 0.0 | 4.0 | 0.00 | 0.00 | 0.00 | 50 | 1011.6 |
| 20260506202109 | 69 | 159 | 0.0 | 4.0 | 0.00 | 0.00 | 0.00 | 51 | 1011.6 |
| 20260506201624 | 69 | 170 | 1.0 | 4.0 | 0.00 | 0.00 | 0.00 | 51 | 1011.6 |
| 20260506201058 | 69 | 169 | 0.0 | 6.0 | 0.00 | 0.00 | 0.00 | 52 | 1011.8 |
| 20260506200554 | 69 | 194 | 0.0 | 8.0 | 0.00 | 0.00 | 0.00 | 52 | 1011.8 |
| 20260506200049 | 69 | 178 | 2.0 | 8.0 | 0.00 | 0.00 | 0.00 | 50 | 1011.8 |
| 20260506195607 | 69 | 150 | 0.0 | 7.0 | 0.00 | 0.00 | 0.00 | 50 | 1011.9 |
| 20260506195123 | 70 | 168 | 0.0 | 3.0 | 0.00 | 0.00 | 0.00 | 51 | 1012.0 |
| 20260506194557 | 70 | 168 | 0.0 | 7.0 | 0.00 | 0.00 | 0.00 | 54 | 1012.0 |
| 20260506194051 | 70 | 175 | 2.0 | 7.0 | 0.00 | 0.00 | 0.00 | 51 | 1012.0 |
| 20260506193607 | 72 | 167 | 1.0 | 5.0 | 0.00 | 0.00 | 0.00 | 49 | 1012.0 |
| 20260506193100 | 73 | 163 | 1.0 | 3.0 | 0.00 | 0.00 | 0.00 | 48 | 1011.9 |
| 20260506192717 | 74 | 121 | 0.0 | 4.0 | 0.00 | 0.00 | 0.00 | 48 | 1012.3 |
| 20260506192122 | 73 | 120 | 1.0 | 4.0 | 0.00 | 0.00 | 0.00 | 48 | 1012.3 |
| 20260506191619 | 73 | 63 | 1.0 | 4.0 | 0.00 | 0.00 | 0.00 | 51 | 1012.3 |
| 20260506191055 | 72 | 194 | 1.0 | 7.0 | 0.00 | 0.00 | 0.00 | 53 | 1012.3 |
| 20260506190629 | 72 | 265 | 1.0 | 10.0 | 0.00 | 0.00 | 0.00 | 52 | 1012.3 |
| 20260506190052 | 71 | 77 | 5.0 | 10.0 | 0.00 | 0.00 | 0.00 | 55 | 1012.3 |
| 20260506185603 | 69 | 84 | 0.0 | 1.0 | 0.00 | 0.00 | 0.00 | 58 | 1012.4 |
| 20260506185058 | 69 | 81 | 0.0 | 0.0 | 0.00 | 0.00 | 0.00 | 56 | 1012.4 |
| 20260506184613 | 70 | 80 | 0.0 | 4.0 | 0.00 | 0.00 | 0.00 | 55 | 1012.4 |
| 20260506184123 | 71 | 79 | 0.0 | 4.0 | 0.00 | 0.00 | 0.00 | 54 | 1012.5 |
| 20260506183607 | 72 | 73 | 0.0 | 3.0 | 0.00 | 0.00 | 0.00 | 53 | 1012.5 |
| 20260506183101 | 71 | 74 | 1.0 | 3.0 | 0.00 | 0.00 | 0.00 | 56 | 1012.5 |
| 20260506182554 | 70 | 69 | 0.0 | 0.0 | 0.00 | 0.00 | 0.00 | 55 | 1012.5 |
| 20260506182051 | 70 | 69 | 0.0 | 0.0 | 0.00 | 0.00 | 0.00 | 55 | 1012.5 |
| 20260506181607 | 70 | 65 | 0.0 | 4.0 | 0.00 | 0.00 | 0.00 | 58 | 1012.5 |
| 20260506181122 | 70 | 64 | 1.0 | 5.0 | 0.00 | 0.00 | 0.00 | 58 | 1012.5 |
| 20260506180556 | 70 | 65 | 1.0 | 5.0 | 0.00 | 0.00 | 0.00 | 57 | 1012.5 |
| 20260506180054 | 70 | 65 | 0.0 | 2.0 | 0.00 | 0.00 | 0.00 | 55 | 1012.5 |
| 20260506175632 | 71 | 65 | 0.0 | 4.0 | 0.00 | 0.00 | 0.00 | 54 | 1012.5 |
| 20260506175106 | 72 | 64 | 0.0 | 9.0 | 0.00 | 0.00 | 0.00 | 55 | 1012.5 |
| 20260506174602 | 72 | 71 | 0.0 | 9.0 | 0.00 | 0.00 | 0.00 | 54 | 1012.5 |
| 20260506174059 | 71 | 61 | 1.0 | 6.0 | 0.00 | 0.00 | 0.00 | 56 | 1012.5 |
| 20260506173632 | 70 | 78 | 0.0 | 0.0 | 0.00 | 0.00 | 0.00 | 57 | 1012.5 |
| 20260506173114 | 70 | 78 | 0.0 | 2.0 | 0.00 | 0.00 | 0.00 | 58 | 1012.5 |
| 20260506172624 | 70 | 76 | 1.0 | 5.0 | 0.00 | 0.00 | 0.00 | 56 | 1012.5 |
| 20260506172058 | 70 | 67 | 1.0 | 5.0 | 0.00 | 0.00 | 0.00 | 58 | 1012.5 |
| 20260506171552 | 69 | 65 | 0.0 | 4.0 | 0.00 | 0.00 | 0.00 | 59 | 1012.5 |
| 20260506171047 | 69 | 65 | 0.0 | 1.0 | 0.00 | 0.00 | 0.00 | 60 | 1012.5 |
| 20260506170606 | 68 | 63 | 0.0 | 1.0 | 0.00 | 0.00 | 0.00 | 62 | 1012.5 |
| 20260506170059 | 68 | 63 | 0.0 | 1.0 | 0.00 | 0.00 | 0.00 | 61 | 1012.5 |
| 20260506165554 | 68 | 72 | 0.0 | 3.0 | 0.00 | 0.00 | 0.00 | 63 | 1012.5 |
| 20260506165114 | 67 | 71 | 0.0 | 5.0 | 0.00 | 0.00 | 0.00 | 62 | 1012.5 |
| 20260506164554 | 67 | 76 | 0.0 | 5.0 | 0.00 | 0.00 | 0.00 | 63 | 1012.5 |
| 20260506164051 | 67 | 73 | 1.0 | 5.0 | 0.00 | 0.00 | 0.00 | 64 | 1012.4 |
| 20260506163623 | 67 | 83 | 1.0 | 4.0 | 0.00 | 0.00 | 0.00 | 65 | 1012.4 |
| 20260506163106 | 66 | 83 | 0.0 | 7.0 | 0.00 | 0.00 | 0.00 | 67 | 1012.4 |
| 20260506162602 | 66 | 84 | 1.0 | 7.0 | 0.00 | 0.00 | 0.00 | 68 | 1012.4 |
| 20260506162102 | 65 | 81 | 0.0 | 4.0 | 0.00 | 0.00 | 0.00 | 70 | 1012.4 |
| 20260506161601 | 65 | 81 | 0.0 | 6.0 | 0.00 | 0.00 | 0.00 | 71 | 1012.4 |
| 20260506161055 | 64 | 82 | 2.0 | 6.0 | 0.00 | 0.00 | 0.00 | 73 | 1012.4 |
| 20260506160553 | 63 | 82 | 3.0 | 5.0 | 0.00 | 0.00 | 0.00 | 75 | 1012.4 |
| 20260506160051 | 63 | 82 | 0.0 | 4.0 | 0.00 | 0.00 | 0.00 | 78 | 1012.4 |
| 20260506155607 | 62 | 90 | 0.0 | 1.0 | 0.00 | 0.00 | 0.00 | 80 | 1012.4 |
| 20260506155102 | 62 | 91 | 0.0 | 4.0 | 0.00 | 0.00 | 0.00 | 82 | 1012.4 |
| 20260506154556 | 61 | 92 | 1.0 | 4.0 | 0.00 | 0.00 | 0.00 | 84 | 1012.4 |
| 20260506154130 | 61 | 120 | 0.0 | 4.0 | 0.00 | 0.00 | 0.00 | 86 | 1012.5 |
| 20260506153603 | 61 | 126 | 0.0 | 1.0 | 0.00 | 0.00 | 0.00 | 88 | 1012.5 |
| 20260506153113 | 60 | 128 | 0.0 | 0.0 | 0.00 | 0.00 | 0.00 | 89 | 1012.5 |
| 20260506152609 | 60 | 128 | 0.0 | 1.0 | 0.00 | 0.00 | 0.00 | 90 | 1012.5 |
| 20260506152118 | 59 | 128 | 0.0 | 1.0 | 0.00 | 0.00 | 0.00 | 91 | 1012.5 |
| 20260506151552 | 59 | 128 | 0.0 | 0.0 | 0.00 | 0.00 | 0.00 | 92 | 1012.5 |
| 20260506151107 | 59 | 128 | 0.0 | 1.0 | 0.00 | 0.00 | 0.00 | 92 | 1012.5 |
| 20260506150623 | 58 | 128 | 0.0 | 3.0 | 0.00 | 0.00 | 0.00 | 93 | 1012.5 |
| 20260506150116 | 58 | 128 | 1.0 | 3.0 | 0.00 | 0.00 | 0.00 | 93 | 1012.5 |
| 20260506145609 | 57 | 128 | 0.0 | 2.0 | 0.00 | 0.00 | 0.00 | 93 | 1012.5 |
| 20260506145105 | 57 | 128 | 0.0 | 4.0 | 0.00 | 0.00 | 0.00 | 93 | 1012.5 |
| 20260506144601 | 57 | 128 | 1.0 | 4.0 | 0.00 | 0.00 | 0.00 | 93 | 1012.5 |
| 20260506144056 | 56 | 256 | 0.0 | 0.0 | 0.00 | 0.00 | 0.00 | 93 | 1012.3 |
| 20260506143555 | 56 | 255 | 0.0 | 1.0 | 0.00 | 0.00 | 0.00 | 93 | 1012.3 |
| 20260506143108 | 55 | 255 | 0.0 | 1.0 | 0.00 | 0.00 | 0.00 | 93 | 1012.3 |
| 20260506142714 | 55 | 256 | 0.0 | 0.0 | 0.00 | 0.00 | 0.00 | 93 | 1012.2 |
| 20260506142053 | 55 | 256 | 0.0 | 0.0 | 0.00 | 0.00 | 0.00 | 93 | 1012.2 |
| 20260506141609 | 54 | 256 | 0.0 | 0.0 | 0.00 | 0.00 | 0.00 | 93 | 1012.2 |
| 20260506141125 | 54 | 256 | 0.0 | 0.0 | 0.00 | 0.00 | 0.00 | 93 | 1012.2 |
| 20260506140619 | 54 | 256 | 0.0 | 0.0 | 0.00 | 0.00 | 0.00 | 93 | 1012.2 |
| 20260506140051 | 53 | 256 | 0.0 | 0.0 | 0.00 | 0.00 | 0.00 | 92 | 1012.1 |
| 20260506135604 | 53 | 256 | 0.0 | 0.0 | 0.00 | 0.00 | 0.00 | 92 | 1012.0 |
| 20260506135101 | 53 | 256 | 0.0 | 0.0 | 0.00 | 0.00 | 0.00 | 92 | 1012.0 |
| 20260506134600 | 53 | 256 | 0.0 | 0.0 | 0.00 | 0.00 | 0.00 | 92 | 1012.0 |
| 20260506134055 | 53 | 256 | 0.0 | 0.0 | 0.00 | 0.00 | 0.00 | 92 | 1011.9 |
| 20260506133551 | 53 | 256 | 0.0 | 0.0 | 0.00 | 0.00 | 0.00 | 92 | 1011.9 |
| 20260506133106 | 53 | 256 | 0.0 | 0.0 | 0.00 | 0.00 | 0.00 | 92 | 1011.9 |
| 20260506132601 | 52 | 256 | 0.0 | 0.0 | 0.00 | 0.00 | 0.00 | 92 | 1011.9 |
| 20260506132100 | 52 | 256 | 0.0 | 0.0 | 0.00 | 0.00 | 0.00 | 91 | 1011.9 |
| 20260506131558 | 52 | 256 | 0.0 | 0.0 | 0.00 | 0.00 | 0.00 | 92 | 1011.9 |
| 20260506131053 | 52 | 256 | 0.0 | 0.0 | 0.00 | 0.00 | 0.00 | 91 | 1011.7 |
| 20260506130625 | 52 | 256 | 0.0 | 0.0 | 0.00 | 0.00 | 0.00 | 91 | 1011.7 |
| 20260506130114 | 52 | 256 | 0.0 | 0.0 | 0.00 | 0.00 | 0.00 | 91 | 1011.7 |
| 20260506125635 | 52 | 256 | 0.0 | 0.0 | 0.00 | 0.00 | 0.00 | 91 | 1011.5 |
| 20260506125108 | 52 | 256 | 0.0 | 0.0 | 0.00 | 0.00 | 0.00 | 91 | 1011.5 |
| 20260506124553 | 52 | 256 | 0.0 | 0.0 | 0.00 | 0.00 | 0.00 | 91 | 1011.5 |
| 20260506124107 | 52 | 256 | 0.0 | 0.0 | 0.00 | 0.00 | 0.00 | 91 | 1011.4 |
| 20260506123623 | 52 | 256 | 0.0 | 0.0 | 0.00 | 0.00 | 0.00 | 91 | 1011.4 |
| 20260506123056 | 53 | 256 | 0.0 | 0.0 | 0.00 | 0.00 | 0.00 | 91 | 1011.4 |
| 20260506122610 | 53 | 256 | 0.0 | 0.0 | 0.00 | 0.00 | 0.00 | 91 | 1011.4 |
| 20260506122105 | 53 | 256 | 0.0 | 0.0 | 0.00 | 0.00 | 0.00 | 91 | 1011.4 |
| 20260506121604 | 53 | 256 | 0.0 | 0.0 | 0.00 | 0.00 | 0.00 | 91 | 1011.4 |
| 20260506121058 | 53 | 256 | 0.0 | 0.0 | 0.00 | 0.00 | 0.00 | 91 | 1011.4 |
| 20260506120554 | 52 | 256 | 0.0 | 0.0 | 0.00 | 0.00 | 0.00 | 91 | 1011.4 |
| 20260506120109 | 52 | 256 | 0.0 | 0.0 | 0.00 | 0.00 | 0.00 | 91 | 1011.4 |
| 20260506115604 | 53 | 256 | 0.0 | 0.0 | 0.00 | 0.00 | 0.00 | 90 | 1011.3 |
| 20260506115122 | 53 | 256 | 0.0 | 0.0 | 0.00 | 0.00 | 0.00 | 90 | 1011.3 |
| 20260506114630 | 53 | 256 | 0.0 | 0.0 | 0.00 | 0.00 | 0.00 | 91 | 1011.3 |
| 20260506114122 | 53 | 256 | 0.0 | 0.0 | 0.00 | 0.00 | 0.00 | 91 | 1011.2 |
| 20260506113613 | 52 | 256 | 0.0 | 0.0 | 0.00 | 0.00 | 0.00 | 90 | 1011.2 |
| 20260506113110 | 52 | 256 | 0.0 | 0.0 | 0.00 | 0.00 | 0.00 | 90 | 1011.2 |
| 20260506112605 | 52 | 256 | 0.0 | 0.0 | 0.00 | 0.00 | 0.00 | 90 | 1011.3 |
| 20260506112121 | 52 | 256 | 0.0 | 0.0 | 0.00 | 0.00 | 0.00 | 90 | 1011.3 |
| 20260506111557 | 52 | 256 | 0.0 | 0.0 | 0.00 | 0.00 | 0.00 | 89 | 1011.3 |
| 20260506111053 | 52 | 256 | 0.0 | 0.0 | 0.00 | 0.00 | 0.00 | 89 | 1011.2 |
| 20260506110609 | 52 | 256 | 0.0 | 0.0 | 0.00 | 0.00 | 0.00 | 89 | 1011.2 |
| 20260506110104 | 52 | 256 | 0.0 | 0.0 | 0.00 | 0.00 | 0.00 | 89 | 1011.2 |
| 20260506105554 | 52 | 256 | 0.0 | 0.0 | 0.00 | 0.00 | 0.00 | 89 | 1011.3 |
| 20260506105110 | 52 | 256 | 0.0 | 0.0 | 0.00 | 0.00 | 0.00 | 89 | 1011.3 |
| 20260506104626 | 52 | 256 | 0.0 | 0.0 | 0.00 | 0.00 | 0.00 | 89 | 1011.3 |
| 20260506104123 | 52 | 256 | 0.0 | 0.0 | 0.00 | 0.00 | 0.00 | 89 | 1011.3 |
| 20260506103607 | 53 | 256 | 0.0 | 0.0 | 0.00 | 0.00 | 0.00 | 89 | 1011.3 |
| 20260506103114 | 53 | 256 | 0.0 | 0.0 | 0.00 | 0.00 | 0.00 | 89 | 1011.3 |
| 20260506102608 | 53 | 256 | 0.0 | 0.0 | 0.00 | 0.00 | 0.00 | 89 | 1011.2 |
| 20260506102104 | 52 | 256 | 0.0 | 0.0 | 0.00 | 0.00 | 0.00 | 89 | 1011.2 |
| 20260506101559 | 52 | 256 | 0.0 | 0.0 | 0.00 | 0.00 | 0.00 | 89 | 1011.2 |
| 20260506101055 | 52 | 256 | 0.0 | 0.0 | 0.00 | 0.00 | 0.00 | 89 | 1011.2 |
| 20260506100552 | 52 | 256 | 0.0 | 0.0 | 0.00 | 0.00 | 0.00 | 88 | 1011.2 |
| 20260506100106 | 53 | 256 | 0.0 | 0.0 | 0.00 | 0.00 | 0.00 | 89 | 1011.2 |
| 20260506095609 | 53 | 256 | 0.0 | 0.0 | 0.00 | 0.00 | 0.00 | 89 | 1011.2 |
| 20260506095100 | 53 | 256 | 0.0 | 0.0 | 0.00 | 0.00 | 0.00 | 89 | 1011.2 |
| 20260506094658 | 53 | 256 | 0.0 | 0.0 | 0.00 | 0.00 | 0.00 | 89 | 1011.2 |
| 20260506094117 | 53 | 256 | 0.0 | 0.0 | 0.00 | 0.00 | 0.00 | 89 | 1011.4 |
| 20260506093553 | 53 | 256 | 0.0 | 0.0 | 0.00 | 0.00 | 0.00 | 89 | 1011.4 |
| 20260506093109 | 53 | 256 | 0.0 | 0.0 | 0.00 | 0.00 | 0.00 | 89 | 1011.4 |
| 20260506092605 | 53 | 256 | 0.0 | 0.0 | 0.00 | 0.00 | 0.00 | 89 | 1011.4 |
| 20260506092119 | 54 | 256 | 0.0 | 0.0 | 0.00 | 0.00 | 0.00 | 89 | 1011.4 |
| 20260506091554 | 54 | 256 | 0.0 | 0.0 | 0.00 | 0.00 | 0.00 | 88 | 1011.4 |
| 20260506091108 | 54 | 256 | 0.0 | 0.0 | 0.00 | 0.00 | 0.00 | 88 | 1011.4 |
| 20260506090623 | 54 | 256 | 0.0 | 0.0 | 0.00 | 0.00 | 0.00 | 88 | 1011.4 |
| 20260506090118 | 54 | 256 | 0.0 | 0.0 | 0.00 | 0.00 | 0.00 | 88 | 1011.4 |
| 20260506085627 | 54 | 256 | 0.0 | 0.0 | 0.00 | 0.00 | 0.00 | 88 | 1011.5 |
| 20260506085122 | 55 | 256 | 0.0 | 0.0 | 0.00 | 0.00 | 0.00 | 88 | 1011.5 |
| 20260506084555 | 55 | 256 | 0.0 | 0.0 | 0.00 | 0.00 | 0.00 | 88 | 1011.5 |
| 20260506084131 | 55 | 256 | 0.0 | 0.0 | 0.00 | 0.00 | 0.00 | 88 | 1011.6 |
| 20260506083608 | 55 | 256 | 0.0 | 0.0 | 0.00 | 0.00 | 0.00 | 88 | 1011.6 |
| 20260506083123 | 55 | 256 | 0.0 | 0.0 | 0.00 | 0.00 | 0.00 | 88 | 1011.6 |
| 20260506082556 | 55 | 256 | 0.0 | 0.0 | 0.00 | 0.00 | 0.00 | 88 | 1011.6 |
| 20260506082051 | 55 | 256 | 0.0 | 0.0 | 0.00 | 0.00 | 0.00 | 88 | 1011.6 |
| 20260506081606 | 55 | 256 | 0.0 | 0.0 | 0.00 | 0.00 | 0.00 | 88 | 1011.6 |
| 20260506081102 | 55 | 256 | 0.0 | 0.0 | 0.00 | 0.01 | 0.00 | 87 | 1011.8 |
| 20260506080558 | 55 | 256 | 0.0 | 0.0 | 0.00 | 0.01 | 0.00 | 87 | 1011.8 |
| 20260506080113 | 55 | 256 | 0.0 | 0.0 | 0.00 | 0.01 | 0.00 | 87 | 1011.8 |
| 20260506073059 | 55 | 256 | 0.0 | 0.0 | 0.00 | 0.01 | 0.00 | 87 | 1011.7 |
| 20260506072557 | 55 | 256 | 0.0 | 0.0 | 0.00 | 0.01 | 0.00 | 87 | 1011.5 |
| 20260506072056 | 55 | 256 | 0.0 | 0.0 | 0.00 | 0.01 | 0.00 | 87 | 1011.5 |
| 20260506071552 | 55 | 256 | 0.0 | 0.0 | 0.00 | 0.01 | 0.00 | 87 | 1011.5 |
| 20260506071108 | 56 | 256 | 0.0 | 0.0 | 0.00 | 0.01 | 0.00 | 87 | 1011.4 |
| 20260506070602 | 55 | 256 | 0.0 | 0.0 | 0.00 | 0.01 | 0.00 | 86 | 1011.4 |